Jacksonville, IL

5:59 PM CST on January 23, 2018 (GMT -0600)
Jacksonville Municipal

Weather History for KIJX - March, 2013

Change the Weather History Date:

Thursday, March 28, 2013

  Actual Average (KSPI) Record (KSPI)
Temperature  
Mean Temperature 34 °F -  
Max Temperature 46 °F 59 °F 86 °F (1985)
Min Temperature 23 °F 39 °F 14 °F (1934)
Degree Days  
Heating Degree Days 30    
Moisture  
Dew Point 27 °F    
Average Humidity 73    
Maximum Humidity 89    
Minimum Humidity 52    
Precipitation  
Precipitation 0.00 in - - ()
Sea Level Pressure  
Sea Level Pressure 30.34 in    
Wind  
Wind Speed 4 mph (East)    
Max Wind Speed 10 mph    
Max Gust Speed -    
Visibility 10 miles    
Events      
Averages and records for this station are not official NWS values.
T = Trace of Precipitation, MM = Missing Value Source: NWS Daily Summary

Daily Weather History Graph

Daily Weather History Graph

Search for Another Location

Airport or City:

Trip Planner

Search our weather history database for the weather conditions in past years. The results will help you decide how hot, cold, wet, or windy it might be!

Date:

Astronomy

Mar. 28, 2013 Rise Set
Actual Time 6:51 AM CDT 7:21 PM CDT
Civil Twilight 6:24 AM CDT 7:48 PM CDT
Nautical Twilight 5:52 AM CDT 8:20 PM CDT
Astronomical Twilight 5:19 AM CDT 8:53 PM CDT
Moon 9:13 PM CDT (3/28) 7:19 AM CDT (3/28)
Length of Visible Light 13h 24m
Length of Day
12h 30m
Full, 98% of the Moon is Illuminated
Mar 28
Full
Apr 2
Last Quarter
Apr 10
New
Apr 18
First Quarter
Apr 25
Full

Hourly Weather History & Observations

Time (CDT) Temp. Windchill Dew Point Humidity Pressure Visibility Wind Dir Wind Speed Gust Speed Precip Events Conditions
12:15 AM 30.6 °F - 23.4 °F 75% 30.35 in 10.0 mi Calm Calm - N/A   Scattered Clouds
12:35 AM 28.4 °F - 22.5 °F 78% 30.35 in 10.0 mi Calm Calm - N/A   Scattered Clouds
12:55 AM 28.8 °F 25.0 °F 22.5 °F 77% 30.35 in 10.0 mi SSE 3.5 mph - N/A   Clear
1:15 AM 28.0 °F - 23.2 °F 82% 30.35 in 10.0 mi Calm Calm - N/A   Clear
1:35 AM 26.6 °F - 21.7 °F 82% 30.35 in 10.0 mi Calm Calm - N/A   Clear
1:55 AM 27.5 °F - 23.0 °F 83% 30.35 in 10.0 mi Calm Calm - N/A   Mostly Cloudy
2:35 AM 27.3 °F - 22.8 °F 83% 30.35 in 10.0 mi Calm Calm - N/A   Mostly Cloudy
2:55 AM 27.1 °F - 22.6 °F 83% 30.35 in 10.0 mi Calm Calm - N/A   Mostly Cloudy
3:15 AM 27.0 °F - 22.6 °F 84% 30.35 in 10.0 mi Calm Calm - N/A   Scattered Clouds
3:35 AM 25.7 °F - 22.6 °F 88% 30.35 in 10.0 mi Calm Calm - N/A   Clear
3:55 AM 26.6 °F 22.6 °F 23.0 °F 86% 30.35 in 10.0 mi ENE 3.5 mph - N/A   Clear
4:15 AM 24.6 °F - 21.2 °F 87% 30.35 in 10.0 mi Calm Calm - N/A   Clear
4:35 AM 23.7 °F - 20.8 °F 89% 30.35 in 7.0 mi Calm Calm - N/A   Clear
4:55 AM 24.8 °F 19.1 °F 21.7 °F 88% 30.35 in 10.0 mi ENE 4.6 mph - N/A   Clear
5:15 AM 23.9 °F - 20.5 °F 87% 30.35 in 10.0 mi Calm Calm - N/A   Clear
5:35 AM 23.7 °F 19.3 °F 20.1 °F 86% 30.35 in 10.0 mi ESE 3.5 mph - N/A   Clear
5:55 AM 23.5 °F 19.1 °F 20.3 °F 87% 30.35 in 10.0 mi East 3.5 mph - N/A   Clear
6:15 AM 23.2 °F 17.2 °F 20.3 °F 89% 30.35 in 10.0 mi East 4.6 mph - N/A   Clear
6:35 AM 23.9 °F 18.0 °F 20.3 °F 86% 30.36 in 10.0 mi East 4.6 mph - N/A   Clear
6:55 AM 23.4 °F 16.2 °F 20.1 °F 87% 30.37 in 7.0 mi East 5.8 mph - N/A   Clear
7:15 AM 23.5 °F 16.4 °F 19.9 °F 86% 30.37 in 7.0 mi East 5.8 mph - N/A   Clear
7:35 AM 24.6 °F 17.7 °F 20.3 °F 84% 30.37 in 7.0 mi East 5.8 mph - N/A   Clear
7:55 AM 26.1 °F 20.5 °F 21.7 °F 84% 30.38 in 7.0 mi ESE 4.6 mph - N/A   Clear
8:15 AM 27.7 °F 23.8 °F 23.0 °F 83% 30.38 in 10.0 mi ESE 3.5 mph - N/A   Clear
8:35 AM 30.7 °F 27.3 °F 24.3 °F 77% 30.38 in 10.0 mi ESE 3.5 mph - N/A   Clear
8:55 AM 33.3 °F 27.9 °F 24.4 °F 70% 30.38 in 10.0 mi ESE 5.8 mph - N/A   Clear
9:15 AM 34.7 °F 28.1 °F 24.8 °F 67% 30.38 in 10.0 mi ESE 8.1 mph - N/A   Clear
9:35 AM 36.3 °F 28.9 °F 24.3 °F 62% 30.38 in 10.0 mi SE 10.4 mph - N/A   Clear
9:55 AM 37.4 °F 30.8 °F 24.6 °F 60% 30.38 in 10.0 mi ESE 9.2 mph - N/A   Clear
10:15 AM 38.7 °F 33.6 °F 25.3 °F 59% 30.38 in 10.0 mi East 6.9 mph - N/A   Clear
10:35 AM 39.7 °F 34.9 °F 27.1 °F 61% 30.38 in 10.0 mi ESE 6.9 mph - N/A   Clear
10:55 AM 40.3 °F 34.4 °F 24.6 °F 54% 30.39 in 10.0 mi SE 9.2 mph - N/A   Clear
11:15 AM 40.1 °F 34.1 °F 24.4 °F 54% 30.38 in 10.0 mi ESE 9.2 mph - N/A   Clear
11:35 AM 41.0 °F 35.8 °F 26.2 °F 56% 30.38 in 10.0 mi ESE 8.1 mph - N/A   Clear
11:55 AM 41.5 °F 36.4 °F 25.7 °F 53% 30.38 in 10.0 mi SE 8.1 mph - N/A   Clear
12:15 PM 42.1 °F 36.6 °F 25.9 °F 53% 30.38 in 10.0 mi SE 9.2 mph - N/A   Clear
12:35 PM 42.8 °F 37.5 °F 28.4 °F 57% 30.37 in 10.0 mi East 9.2 mph - N/A   Clear
12:55 PM 43.3 °F 37.7 °F 26.8 °F 52% 30.36 in 10.0 mi ESE 10.4 mph - N/A   Clear
1:15 PM 43.9 °F 38.3 °F 27.3 °F 52% 30.36 in 10.0 mi East 10.4 mph - N/A   Clear
1:35 PM 43.9 °F 38.3 °F 27.9 °F 53% 30.35 in 10.0 mi ESE 10.4 mph - N/A   Clear
1:55 PM 44.4 °F 39.5 °F 28.4 °F 53% 30.35 in 10.0 mi East 9.2 mph - N/A   Clear
2:15 PM 44.6 °F 39.7 °F 28.4 °F 53% 30.34 in 10.0 mi East 9.2 mph - N/A   Clear
2:35 PM 44.8 °F 40.4 °F 28.8 °F 53% 30.33 in 10.0 mi ESE 8.1 mph - N/A   Clear
2:55 PM 45.5 °F 41.3 °F 29.5 °F 54% 30.33 in 10.0 mi East 8.1 mph - N/A   Clear
3:15 PM 45.5 °F 41.3 °F 30.2 °F 55% 30.32 in 10.0 mi ESE 8.1 mph - N/A   Clear
3:35 PM 45.5 °F 41.3 °F 30.0 °F 55% 30.32 in 10.0 mi ESE 8.1 mph - N/A   Clear
3:55 PM 45.9 °F 42.3 °F 30.9 °F 56% 30.31 in 10.0 mi East 6.9 mph - N/A   Clear
4:15 PM 46.0 °F 41.9 °F 31.1 °F 56% 30.30 in 10.0 mi ESE 8.1 mph - N/A   Clear
4:35 PM 46.6 °F - 34.7 °F 63% 30.30 in 10.0 mi East 9.2 mph - N/A   Clear
4:55 PM 46.2 °F 41.7 °F 34.0 °F 62% 30.29 in 10.0 mi East 9.2 mph - N/A   Clear
5:15 PM 46.4 °F 41.9 °F 34.0 °F 62% 30.29 in 10.0 mi East 9.2 mph - N/A   Scattered Clouds
5:35 PM 46.4 °F 42.4 °F 34.5 °F 63% 30.29 in 10.0 mi East 8.1 mph - N/A   Scattered Clouds
5:55 PM 45.5 °F 40.8 °F 35.1 °F 67% 30.28 in 10.0 mi East 9.2 mph - N/A   Clear
6:15 PM 45.5 °F 42.5 °F 36.0 °F 69% 30.29 in 10.0 mi East 5.8 mph - N/A   Clear
6:35 PM 44.4 °F 41.2 °F 36.5 °F 74% 30.29 in 10.0 mi East 5.8 mph - N/A   Clear
6:55 PM 42.4 °F 38.1 °F 35.8 °F 77% 30.29 in 10.0 mi East 6.9 mph - N/A   Clear
7:15 PM 40.8 °F 36.9 °F 35.6 °F 82% 30.29 in 10.0 mi East 5.8 mph - N/A   Clear
7:35 PM 40.3 °F 37.1 °F 35.8 °F 84% 30.29 in 10.0 mi East 4.6 mph - N/A   Clear
7:55 PM 39.0 °F 34.8 °F 34.3 °F 83% 30.29 in 10.0 mi ENE 5.8 mph - N/A   Clear
8:15 PM 38.7 °F 33.6 °F 33.8 °F 83% 30.29 in 10.0 mi East 6.9 mph - N/A   Scattered Clouds
8:35 PM 37.4 °F 31.4 °F 32.5 °F 83% 30.29 in 10.0 mi East 8.1 mph - N/A   Clear
8:55 PM 36.5 °F 29.7 °F 32.2 °F 84% 30.29 in 10.0 mi East 9.2 mph - N/A   Clear
9:15 PM 37.4 °F 30.8 °F 32.4 °F 82% 30.29 in 10.0 mi ENE 9.2 mph - N/A   Clear
9:35 PM 36.5 °F 30.3 °F 32.0 °F 84% 30.29 in 10.0 mi East 8.1 mph - N/A   Scattered Clouds
9:55 PM 36.5 °F 31.0 °F 32.0 °F 84% 30.29 in 10.0 mi East 6.9 mph - N/A   Mostly Cloudy
10:15 PM 36.0 °F 29.0 °F 32.0 °F 86% 30.29 in 10.0 mi East 9.2 mph - N/A   Scattered Clouds
10:35 PM 36.0 °F 29.0 °F 31.1 °F 82% 30.29 in 10.0 mi East 9.2 mph - N/A   Clear
10:55 PM 35.6 °F 29.2 °F 31.1 °F 84% 30.29 in 10.0 mi East 8.1 mph - N/A   Clear
11:15 PM 35.6 °F 29.9 °F 31.6 °F 85% 30.29 in 10.0 mi East 6.9 mph - N/A   Mostly Cloudy
11:35 PM 35.6 °F 30.7 °F 32.0 °F 87% 30.29 in 10.0 mi East 5.8 mph - N/A   Overcast
11:55 PM 35.6 °F 29.9 °F 32.0 °F 87% 30.29 in 10.0 mi ENE 6.9 mph - N/A   Mostly Cloudy